Time,TemperatureF,DewpointF,PressureIn,WindDirection,WindDirectionDegrees,WindSpeedMPH,WindSpeedGustMPH,Humidity,HourlyPrecipIn,Conditions,Clouds,dailyrainin,SoftwareType,DateUTC
2013-07-28 07:12:00,47.0,-99.9,-100.00,NNW,338,1.0,3.0,-999,0.00,,,0.27,,2013-07-28 11:12:00,
2013-07-28 07:22:00,47.0,-99.9,-100.00,NW,315,1.0,7.0,-999,0.00,,,0.13,,2013-07-28 11:22:00,
2013-07-28 07:33:00,47.0,-99.9,-100.00,NW,315,1.0,3.0,-999,0.00,,,0.03,,2013-07-28 11:33:00,
2013-07-28 07:43:00,48.0,-99.9,-100.00,North,0,0.0,3.0,-999,0.00,,,0.03,,2013-07-28 11:43:00,
2013-07-28 07:54:00,48.0,-99.9,-100.00,NNW,338,0.0,7.0,-999,0.00,,,0.03,,2013-07-28 11:54:00,
2013-07-28 08:03:00,48.0,-99.9,-100.00,NNW,338,1.0,5.0,-999,0.00,,,0.03,,2013-07-28 12:03:00,
2013-07-28 08:13:00,48.0,-99.9,-100.00,NNW,338,1.0,3.0,-999,0.00,,,0.03,,2013-07-28 12:13:00,
2013-07-28 08:22:00,48.0,-99.9,-100.00,NNW,338,1.0,5.0,-999,0.00,,,0.03,,2013-07-28 12:22:00,
2013-07-28 08:33:00,49.0,-99.9,-100.00,NW,315,1.0,5.0,-999,0.00,,,0.03,,2013-07-28 12:33:00,
2013-07-28 08:43:00,49.0,-99.9,-100.00,North,0,0.0,7.0,-999,0.00,,,0.03,,2013-07-28 12:43:00,
2013-07-28 08:53:00,49.0,-99.9,-100.00,North,0,0.0,7.0,-999,0.00,,,0.03,,2013-07-28 12:53:00,
2013-07-28 09:12:00,50.0,-99.9,-100.00,North,0,2.0,6.0,-999,0.00,,,0.03,,2013-07-28 13:12:00,
2013-07-28 09:22:00,50.0,-99.9,-100.00,NW,315,1.0,8.0,-999,0.00,,,0.03,,2013-07-28 13:22:00,
2013-07-28 09:32:00,50.0,-99.9,-100.00,NW,315,0.0,5.0,-999,0.00,,,0.03,,2013-07-28 13:32:00,
2013-07-28 09:43:00,50.0,-99.9,-100.00,NW,315,1.0,10.0,-999,0.00,,,0.03,,2013-07-28 13:43:00,
2013-07-28 10:02:00,50.0,-99.9,-100.00,NW,315,1.0,10.0,-999,0.00,,,0.03,,2013-07-28 14:02:00,
2013-07-28 10:12:00,51.0,-99.9,-100.00,NW,315,3.0,10.0,-999,0.00,,,0.03,,2013-07-28 14:12:00,
2013-07-28 10:33:00,51.0,-99.9,-100.00,NNW,338,2.0,8.0,-999,0.00,,,0.03,,2013-07-28 14:33:00,
2013-07-28 10:53:00,51.0,-99.9,-100.00,NNW,338,2.0,8.0,-999,0.00,,,0.03,,2013-07-28 14:53:00,
2013-07-28 11:03:00,52.0,-99.9,-100.00,NW,315,1.0,5.0,-999,0.00,,,0.03,,2013-07-28 15:03:00,
2013-07-28 11:13:00,52.0,-99.9,-100.00,NNW,338,2.0,6.0,-999,0.00,,,0.03,,2013-07-28 15:13:00,
2013-07-28 11:33:00,52.0,-99.9,-100.00,NNW,338,3.0,7.0,-999,0.00,,,0.03,,2013-07-28 15:33:00,
2013-07-28 11:43:00,52.0,-99.9,-100.00,NW,315,2.0,7.0,-999,0.00,,,0.03,,2013-07-28 15:43:00,
2013-07-28 12:03:00,52.0,-99.9,-100.00,North,0,1.0,12.0,-999,0.00,,,0.03,,2013-07-28 16:03:00,
2013-07-28 12:12:00,52.0,-99.9,-100.00,NNW,338,3.0,9.0,-999,0.00,,,0.03,,2013-07-28 16:12:00,
2013-07-28 12:22:00,52.0,-99.9,-100.00,NW,315,5.0,12.0,-999,0.00,,,0.03,,2013-07-28 16:22:00,
2013-07-28 12:33:00,53.0,-99.9,-100.00,NNW,338,1.0,15.0,-999,0.00,,,0.03,,2013-07-28 16:33:00,
2013-07-28 12:43:00,54.0,-99.9,-100.00,NNW,338,3.0,14.0,-999,0.00,,,0.03,,2013-07-28 16:43:00,
2013-07-28 13:02:00,54.0,-99.9,-100.00,NNW,338,5.0,10.0,-999,0.00,,,0.03,,2013-07-28 17:02:00,
2013-07-28 13:13:00,55.0,-99.9,-100.00,NNW,338,3.0,15.0,-999,0.00,,,0.03,,2013-07-28 17:13:00,
2013-07-28 13:23:00,54.0,-99.9,-100.00,NW,315,3.0,12.0,-999,0.00,,,0.03,,2013-07-28 17:23:00,
2013-07-28 13:33:00,53.0,-99.9,-100.00,NNW,338,3.0,14.0,-999,0.00,,,0.03,,2013-07-28 17:33:00,
2013-07-28 13:44:00,53.0,-99.9,-100.00,NNW,338,2.0,14.0,-999,0.00,,,0.03,,2013-07-28 17:44:00,
2013-07-28 14:03:00,53.0,-99.9,-100.00,NW,315,2.0,10.0,-999,0.00,,,0.03,,2013-07-28 18:03:00,
2013-07-28 14:13:00,54.0,-99.9,-100.00,NNW,338,2.0,10.0,-999,0.00,,,0.03,,2013-07-28 18:13:00,
2013-07-28 14:33:00,53.0,-99.9,-100.00,NNW,338,2.0,13.0,-999,0.00,,,0.03,,2013-07-28 18:33:00,
2013-07-28 14:43:00,54.0,-99.9,-100.00,NNW,338,3.0,12.0,-999,0.00,,,0.03,,2013-07-28 18:43:00,
2013-07-28 15:03:00,54.0,-99.9,-100.00,NNW,338,2.0,9.0,-999,0.00,,,0.03,,2013-07-28 19:03:00,
2013-07-28 15:13:00,53.0,-99.9,-100.00,NNW,338,3.0,12.0,-999,0.00,,,0.03,,2013-07-28 19:13:00,
2013-07-28 15:33:00,54.0,-99.9,-100.00,NNW,338,1.0,10.0,-999,0.00,,,0.03,,2013-07-28 19:33:00,
2013-07-28 16:03:00,54.0,-99.9,-100.00,NNW,338,5.0,12.0,-999,0.00,,,0.03,,2013-07-28 20:03:00,
2013-07-28 16:13:00,54.0,-99.9,-100.00,North,0,1.0,12.0,-999,0.00,,,0.03,,2013-07-28 20:13:00,
2013-07-28 16:33:00,53.0,-99.9,-100.00,NNW,338,2.0,9.0,-999,0.00,,,0.03,,2013-07-28 20:33:00,
2013-07-28 16:43:00,53.0,-99.9,-100.00,NW,315,1.0,8.0,-999,0.00,,,0.03,,2013-07-28 20:43:00,
2013-07-28 17:03:00,53.0,-99.9,-100.00,North,0,1.0,12.0,-999,0.00,,,0.03,,2013-07-28 21:03:00,
2013-07-28 17:13:00,53.0,-99.9,-100.00,North,0,1.0,3.0,-999,0.00,,,0.03,,2013-07-28 21:13:00,
2013-07-28 17:33:00,53.0,-99.9,-100.00,NNE,23,1.0,5.0,-999,0.00,,,0.03,,2013-07-28 21:33:00,
2013-07-28 17:44:00,53.0,-99.9,-100.00,North,0,2.0,5.0,-999,0.00,,,0.03,,2013-07-28 21:44:00,
2013-07-28 18:02:00,53.0,-99.9,-100.00,North,0,1.0,5.0,-999,0.01,,,0.04,,2013-07-28 22:02:00,
2013-07-28 18:12:00,53.0,-99.9,-100.00,North,0,2.0,9.0,-999,0.01,,,0.04,,2013-07-28 22:12:00,
2013-07-28 18:32:00,53.0,-99.9,-100.00,NNE,23,2.0,7.0,-999,0.01,,,0.04,,2013-07-28 22:32:00,
2013-07-28 18:43:00,53.0,-99.9,-100.00,North,0,3.0,9.0,-999,0.01,,,0.04,,2013-07-28 22:43:00,
2013-07-28 19:03:00,52.0,-99.9,-100.00,North,0,1.0,6.0,-999,0.00,,,0.04,,2013-07-28 23:03:00,
2013-07-28 19:12:00,52.0,-99.9,-100.00,North,0,2.0,6.0,-999,0.00,,,0.04,,2013-07-28 23:12:00,
2013-07-28 19:33:00,52.0,-99.9,-100.00,North,0,2.0,10.0,-999,0.00,,,0.04,,2013-07-28 23:33:00,
2013-07-28 19:43:00,52.0,-99.9,-100.00,North,0,2.0,7.0,-999,0.00,,,0.04,,2013-07-28 23:43:00,
2013-07-28 19:53:00,52.0,-99.9,-100.00,North,0,2.0,7.0,-999,0.00,,,0.04,,2013-07-28 23:53:00,
2013-07-28 20:03:00,52.0,-99.9,-100.00,NNE,23,1.0,12.0,-999,0.00,,,0.04,,2013-07-29 00:03:00,
2013-07-28 20:32:00,51.0,-99.9,-100.00,NNW,338,1.0,9.0,-999,0.00,,,0.04,,2013-07-29 00:32:00,
2013-07-28 20:43:00,51.0,-99.9,-100.00,North,0,1.0,3.0,-999,0.00,,,0.04,,2013-07-29 00:43:00,
2013-07-28 20:52:00,51.0,-99.9,-100.00,NNE,23,2.0,6.0,-999,0.00,,,0.04,,2013-07-29 00:52:00,
2013-07-28 21:02:00,51.0,-99.9,-100.00,NNE,23,1.0,5.0,-999,0.00,,,0.04,,2013-07-29 01:02:00,
2013-07-28 21:30:00,51.0,-99.9,-100.00,North,0,2.0,7.0,-999,0.00,,,0.04,,2013-07-29 01:30:00,
2013-07-28 21:40:00,50.0,-99.9,-100.00,North,0,2.0,8.0,-999,0.00,,,0.04,,2013-07-29 01:40:00,
2013-07-28 22:03:00,50.0,-99.9,-100.00,NNW,338,1.0,6.0,-999,0.00,,,0.04,,2013-07-29 02:03:00,
2013-07-28 22:27:00,50.0,-99.9,-100.00,NE,45,0.0,6.0,-999,0.00,,,0.04,,2013-07-29 02:27:00,
2013-07-28 23:00:00,50.0,-99.9,-100.00,North,0,1.0,5.0,-999,0.00,,,0.04,,2013-07-29 03:00:00,
2013-07-28 23:17:00,50.0,-99.9,-100.00,NNW,338,1.0,7.0,-999,0.00,,,0.04,,2013-07-29 03:17:00,
2013-07-28 23:38:00,50.0,-99.9,-100.00,NNE,23,0.0,5.0,-999,0.00,,,0.04,,2013-07-29 03:38:00,
2013-07-28 23:52:00,50.0,-99.9,-100.00,North,0,0.0,3.0,-999,0.00,,,0.04,,2013-07-29 03:52:00,